Flag for Brazil Weather past 2 weeks in Boa Vista, Roraima, Brazil

Now
75 °F

Broken clouds.


Feels Like: 75 °F
Forecast: 75 / 83 °F
Wind: 3 mph from Northwest

Location: Boa Vista Aeropor-To

Current Time: May 23, 2015 at 8:32:38 AM

Latest Report: May 23, 2015 at 8:00 AM


Visibility: N/A

Pressure: 30.01 "Hg

Humidity: 89%

Dew point: 72 °F

Location of Boa VistaLocation

Historic Weather in Boa Vista — Graph

°F

Boa Vista temperature yesterday

Maximum temperature yesterday: 82 °F (at 4:00 PM)
Minimum temperature yesterday: 73 °F (at 3:00 AM)
Average temperature yesterday: 77 °F

Past Weeks' High & Low Weather Summary

 TemperatureHumidityPressure
High90 °F (May 9, 3:00 PM)100% (May 18, 12:00 PM)30.09 "Hg (May 18, 12:00 PM)
Low70 °F (May 19, 10:00 AM)43% (May 9, 3:00 PM)29.74 "Hg (May 22, 9:00 AM)
Average78 °F77%29.91 "Hg
* Reported May 8 7:00 AM — May 23 7:00 AM, Boa Vista, Weather by CustomWeather, © 2015

Note: Actual official high and low records may vary slightly from our data, if they occured in-between our weather recording intervals... More about our weather records

Advertising

Boa Vista weather history for previous 24 hours

 ConditionsComfort  
Time TempWeatherWind HumidityBarometerVisibility
7:00 AM
Sat, May 23
73 °FScattered clouds.2 mph94%30.09 "HgN/A
6:00 AM73 °FFog.No wind94%29.89 "Hg3 mi
5:00 AM73 °FRain. Partly cloudy.2 mph94%29.95 "Hg2 mi
4:00 AM73 °FPassing clouds.No wind94%29.95 "HgN/A
3:00 AM73 °FPartly cloudy.2 mph94%29.95 "HgN/A
2:00 AM73 °FRain. Partly cloudy.No wind94%29.92 "Hg2 mi
1:00 AM75 °FPassing clouds.3 mph89%29.95 "HgN/A
12:00 AM75 °FPassing clouds.2 mph94%29.92 "HgN/A
11:00 PM
Fri, May 22
77 °FPassing clouds.3 mph89%29.98 "HgN/A
10:00 PM77 °FPassing clouds.3 mph89%29.92 "HgN/A
9:00 PM79 °FPassing clouds.2 mph84%29.95 "HgN/A
8:00 PM79 °FPassing clouds.3 mph84%29.92 "HgN/A
7:00 PM81 °FPassing clouds.No wind74%29.89 "HgN/A
6:00 PM82 °FPassing clouds.No wind70%29.86 "HgN/A
5:00 PM82 °FScattered clouds.3 mph70%29.86 "HgN/A
4:00 PM82 °FScattered clouds.2 mph70%29.86 "HgN/A
3:00 PM79 °FScattered clouds.No wind79%29.89 "HgN/A
2:00 PM77 °FScattered clouds.3 mph83%29.95 "HgN/A
1:00 PM77 °FBroken clouds.5 mph83%29.95 "HgN/A
12:00 PM77 °FScattered clouds.3 mph83%30.01 "HgN/A
11:00 AM73 °FBroken clouds.6 mph83%29.98 "HgN/A
10:00 AM73 °FPartly sunny.10 mph94%30.04 "HgN/A
9:00 AM75 °FRain. Partly sunny.6 mph89%29.74 "Hg3 mi
8:00 AM75 °FBroken clouds.5 mph89%30.01 "HgN/A
Weather by CustomWeather, © 2015

See weather overviewHow to use our weather pages